Location: ActonStarParty
(42.4766°N, 71.4538°W)
Time: 15:08:28
(UTC-04:00)

ISS - Visible Passes

Search period start: 27 March 2015 00:00
Search period end: 06 April 2015 00:00
Orbit: 396 x 406 km, 51.6° (Epoch: 27 March)

Date Brightness Start Highest point End Pass type
(mag) Time Alt. Az. Time Alt. Az. Time Alt. Az.
27 Mar -1.5 05:03:00 15° NNW 05:05:05 28° NNE 05:07:58 10° E visible
28 Mar -0.9 04:11:55 21° NNE 04:11:55 21° NNE 04:14:09 10° ENE visible
28 Mar -3.4 05:45:05 10° NW 05:48:20 88° NNE 05:51:33 10° SE visible
29 Mar -2.5 04:53:33 28° NNW 04:54:56 48° NNE 04:58:04 10° ESE visible
30 Mar -0.8 04:02:45 22° ENE 04:02:45 22° ENE 04:04:21 10° E visible
30 Mar -2.9 05:35:22 14° WNW 05:37:53 40° SW 05:40:55 10° SSE visible
31 Mar -3.4 04:44:48 70° SSE 04:44:48 70° SSE 04:47:44 10° SE visible
01 Apr -1.8 05:27:08 18° SW 05:27:11 18° SW 05:29:28 10° S visible
02 Apr -0.5 21:09:46 10° SW 21:09:49 10° SW 21:09:49 10° SW visible
03 Apr -2.2 20:16:49 10° S 20:19:29 24° SE 20:19:59 23° ESE visible
03 Apr -0.1 21:52:35 10° WSW 21:52:39 10° WSW 21:52:39 10° WSW visible
04 Apr -3.3 20:58:51 10° WSW 21:02:06 80° NW 21:02:27 68° NNE visible
05 Apr -3.2 20:05:22 10° SW 20:08:32 53° SE 20:11:44 10° ENE visible
05 Apr -1.1 21:42:14 10° W 21:44:32 26° NW 21:44:32 26° NW visible
